Regional Weather Roundup
Issued by NWS

Home | Current Version | Previous Version | Text Only | Print | Product List | Glossary Off
Versions: 1 2 3 4 5 6 7 8 9 10 11 12 13 14 15 16 17 18 19 20 21 22 23 24 25 26 27 28 29 30 31 32 33 34 35 36 37 38 39 40 41 42 43 44 45 46 47 48 49 50

622
ASUS45 KCYS 222310
RWRWY

WYOMING REGIONAL WEATHER ROUNDUP
NATIONAL WEATHER SERVICE CHEYENNE WY
500 PM MDT THU JUN 22 2017

NOTE:  "FAIR" INDICATES FEW OR NO CLOUDS BELOW 12,000 FEET
WITH NO SIGNIFICANT WEATHER AND/OR OBSTRUCTIONS TO VISIBILITY.

WYZ001-230000-
YELLOWSTONE NATIONAL PARK

CITY           SKY/WX    TMP DP  RH WIND       PRES   REMARKS
LK YELLOWSTONE   N/A     63  21  20 W8G18     30.21R
W YELLOWSTONE  NOT AVBL

$$
WYZ002>013-054>058-071-098>099-230000-
NORTHERN WYOMING

CITY           SKY/WX    TMP DP  RH WIND       PRES   REMARKS
JACKSON        SUNNY     68  16  13 W12       30.14S
CODY           FAIR      70  25  18 N21G28    30.07R
GREYBULL       FAIR      78  24  13 N26G33    29.96R
WORLAND        FAIR      79  28  15 NW17G24   29.96S
SHERIDAN       FAIR      73  32  22 N23       30.02R
BUFFALO        FAIR      66  33  29 N22       30.06R
GILLETTE       PTSUNNY   69  36  29 N14       30.00R
NEWCASTLE      FAIR      73  30  20 NW12G25   29.98R

$$
WYZ014>020-022>026-101>103-230000-
CENTRAL WYOMING

CITY           SKY/WX    TMP DP  RH WIND       PRES   REMARKS
BIG PINEY      FAIR      74  25  16 NW18G28   30.12F
PINEDALE       FAIR      72  25  17 NW21G28   30.13F
DUBOIS         FAIR      70  10  10 N22G33    30.10R
LANDER         FAIR      80  38  22 N6        29.98S
RIVERTON       FAIR      79  34  19 N15G25    29.97S
CASPER         FAIR      77  37  23 MISG      29.98S
DOUGLAS        FAIR      75  39  27 NE13G20   29.99S

$$
WYZ021-027>030-104>119-230000-
SOUTHERN WYOMING

CITY           SKY/WX    TMP DP  RH WIND       PRES   REMARKS
EVANSTON       FAIR      75  33  21 W18       30.16S
KEMMERER         N/A    N/A N/A N/A NW25G31   30.16S
FORT BRIDGER   FAIR      80  23  12 W17G29    30.16S
ROCK SPRINGS   FAIR      80  17   9 W26G39    30.05S
DIXON          FAIR      88  23   9 W21G29    30.02F
RAWLINS        FAIR      83  28  13 W22G31    30.01S
SARATOGA       FAIR      82  27  13 W18G29    30.03F
LARAMIE        FAIR      76  37  24 E16       30.05R
CHEYENNE       FAIR      77  38  24 NE10      30.03R
TORRINGTON     FAIR      82  38  20 N15       29.90S
PINE BLUFFS    FAIR      79  45  29 NE14G21   29.97R

$$




USA.gov is the U.S. government's official web portal to all federal, state and local government web resources and services.